Springfield, MO

5:30 AM CDT on September 27, 2016 (GMT -0500)
Springfield-Branson Regional

Weather History for KSGF - December, 2012

Change the Weather History Date:

Thursday, December 20, 2012

  Actual Average Record
Temperature  
Mean Temperature 42 °F 34 °F  
Max Temperature 57 °F 44 °F 67 °F (1949)
Min Temperature 27 °F 24 °F -11 °F (1901)
Degree Days  
Heating Degree Days 23 31  
Month to date heating degree days 371 581  
Since 1 July heating degree days 1288 1460  
Cooling Degree Days 0 0  
Month to date cooling degree days 2 0  
Year to date cooling degree days 1766 1389  
Moisture  
Dew Point 28 °F    
Average Humidity 76    
Maximum Humidity 92    
Minimum Humidity 59    
Precipitation  
Precipitation T in 0.09 in 1.86 in (1991)
Month to date precipitation 0.93 2.08  
Year to date precipitation 30.77 44.61  
Snow  
Snow T in - - ()
Month to date snowfall T  
Since 1 July snowfall T  
Snow Depth 0.00 in    
Sea Level Pressure  
Sea Level Pressure 29.78 in    
Wind  
Wind Speed 22 mph (West)    
Max Wind Speed 36 mph    
Max Gust Speed 51 mph    
Visibility 7 miles    
Events Rain , Snow    
T = Trace of Precipitation, MM = Missing Value Source: NWS Daily Summary

Daily Weather History Graph

Daily Weather History Graph

Search for Another Location

Airport or City:

Trip Planner

Search our weather history database for the weather conditions in past years. The results will help you decide how hot, cold, wet, or windy it might be!

Date:

Astronomy

Dec. 20, 2012 Rise Set
Actual Time 7:23 AM CST 4:59 PM CST
Civil Twilight 6:54 AM CST 5:28 PM CST
Nautical Twilight 6:21 AM CST 6:01 PM CST
Astronomical Twilight 5:49 AM CST 6:33 PM CST
Moon 12:11 PM CST (12/20) 12:18 AM CST (12/20)
Length of Visible Light 10h 34m
Length of Day
9h 35m
First Quarter, 55% of the Moon is Illuminated
Dec 20
First Quarter
Dec 28
Full
Jan 4
Last Quarter
Jan 11
New
Jan 18
First Quarter

Hourly Weather History & Observations

Time (CST) Temp. Windchill Dew Point Humidity Pressure Visibility Wind Dir Wind Speed Gust Speed Precip Events Conditions
12:52 AM 55.9 °F - 52.0 °F 87% 29.37 in 10.0 mi South 15.0 mph - N/A   Overcast
1:52 AM 55.0 °F - 52.0 °F 89% 29.36 in 10.0 mi South 16.1 mph - N/A   Overcast
2:52 AM 53.1 °F - 41.0 °F 64% 29.37 in 10.0 mi WSW 28.8 mph 36.8 mph N/A   Scattered Clouds
3:52 AM 46.0 °F 37.4 °F 41.0 °F 83% 29.42 in 10.0 mi WSW 25.3 mph 41.4 mph N/A   Mostly Cloudy
4:04 AM 45.0 °F 35.4 °F 39.9 °F 82% 29.43 in 9.0 mi WSW 28.8 mph 48.3 mph N/A   Overcast
4:16 AM 42.1 °F 32.1 °F 39.0 °F 89% 29.45 in 7.0 mi West 25.3 mph 38.0 mph N/A   Overcast
4:24 AM 41.0 °F 30.7 °F 37.9 °F 89% 29.46 in 5.0 mi West 25.3 mph 38.0 mph 0.00 in Rain Light Rain
4:52 AM 37.9 °F 26.3 °F 35.1 °F 89% 29.49 in 7.0 mi West 26.5 mph 36.8 mph 0.00 in Rain Light Rain
5:15 AM 37.0 °F 25.6 °F 34.0 °F 89% 29.50 in 7.0 mi West 24.2 mph 41.4 mph 0.00 in Rain Light Rain
5:38 AM 35.1 °F 22.5 °F 33.1 °F 92% 29.52 in 5.0 mi West 26.5 mph 35.7 mph 0.00 in Rain Light Rain
5:47 AM 35.6 °F 22.5 °F 32.0 °F 87% 29.53 in 6.0 mi West 29.9 mph 38.0 mph 0.00 in Rain Light Rain
5:49 AM 35.6 °F 23.4 °F 32.0 °F 87% 29.53 in 6.0 mi West 25.3 mph 38.0 mph 0.00 in Rain Light Rain
5:52 AM 35.1 °F 23.0 °F 32.0 °F 89% 29.54 in 5.0 mi West 24.2 mph 38.0 mph 0.00 in Rain Light Rain
5:57 AM 35.1 °F 22.7 °F 32.0 °F 89% 29.54 in 5.0 mi West 25.3 mph 34.5 mph 0.00 in Rain Light Rain
6:04 AM 34.0 °F 21.0 °F 32.0 °F 92% 29.54 in 5.0 mi West 26.5 mph 35.7 mph 0.00 in   Overcast
6:33 AM 34.0 °F 22.4 °F 30.0 °F 85% 29.58 in 10.0 mi West 20.7 mph 38.0 mph 0.00 in   Overcast
6:52 AM 33.1 °F 19.6 °F 28.9 °F 85% 29.61 in 10.0 mi WNW 27.6 mph 43.7 mph 0.00 in   Overcast
7:52 AM 30.9 °F 15.9 °F 26.1 °F 82% 29.68 in 9.0 mi West 31.1 mph 48.3 mph 0.00 in Snow Light Snow
8:33 AM 30.0 °F 14.9 °F 26.1 °F 85% 29.72 in 1.8 mi WNW 29.9 mph 38.0 mph 0.00 in Snow Light Snow
8:49 AM 28.4 °F 15.1 °F 26.6 °F 93% 29.73 in 0.8 mi WNW 20.7 mph 50.6 mph 0.00 in Snow Light Snow
8:52 AM 28.9 °F 14.8 °F 26.1 °F 89% 29.75 in 0.8 mi WNW 24.2 mph 41.4 mph 0.00 in Snow Light Snow
8:55 AM 28.9 °F 14.8 °F 26.1 °F 89% 29.74 in 0.8 mi WNW 24.2 mph 38.0 mph 0.00 in Snow Light Snow
9:05 AM 28.9 °F 14.8 °F 26.1 °F 89% 29.75 in 0.8 mi WNW 24.2 mph 39.1 mph 0.00 in Snow Light Snow
9:34 AM 30.0 °F 16.6 °F 26.1 °F 85% 29.77 in 1.0 mi WNW 23.0 mph 33.4 mph 0.00 in Snow Light Snow
9:48 AM 30.2 °F 16.5 °F 26.6 °F 86% 29.78 in 2.0 mi WNW 24.2 mph 38.0 mph 0.00 in Snow Light Snow
9:52 AM 30.0 °F 14.9 °F 26.1 °F 85% 29.79 in 1.8 mi WNW 29.9 mph 40.3 mph 0.00 in Snow Light Snow
10:16 AM 30.9 °F 17.5 °F 27.0 °F 85% 29.81 in 1.2 mi WNW 24.2 mph 39.1 mph 0.00 in Snow Light Snow
10:26 AM 30.9 °F 17.5 °F 26.1 °F 82% 29.82 in 2.5 mi WNW 24.2 mph 38.0 mph 0.00 in Snow Light Snow
10:34 AM 30.9 °F 17.5 °F 25.0 °F 79% 29.83 in 7.0 mi WNW 24.2 mph 38.0 mph 0.00 in   Overcast
10:52 AM 30.9 °F 19.4 °F 25.0 °F 79% 29.85 in 10.0 mi WNW 17.3 mph 42.6 mph 0.00 in   Overcast
11:52 AM 30.0 °F 16.3 °F 21.9 °F 72% 29.91 in 10.0 mi WNW 24.2 mph 44.9 mph 0.00 in   Overcast
12:52 PM 30.0 °F 16.3 °F 21.9 °F 72% 29.94 in 10.0 mi WNW 24.2 mph 36.8 mph N/A   Overcast
1:34 PM 33.1 °F 22.2 °F 23.0 °F 66% 29.93 in 10.0 mi WNW 17.3 mph 38.0 mph N/A   Scattered Clouds
1:52 PM 33.1 °F 21.9 °F 21.9 °F 64% 29.96 in 10.0 mi WNW 18.4 mph 41.4 mph N/A   Partly Cloudy
2:52 PM 34.0 °F 21.5 °F 21.9 °F 61% 30.00 in 10.0 mi WNW 24.2 mph 38.0 mph N/A   Clear
3:52 PM 34.0 °F 21.8 °F 21.0 °F 59% 30.04 in 10.0 mi WNW 23.0 mph 33.4 mph N/A   Clear
4:52 PM 32.0 °F 20.5 °F 19.9 °F 61% 30.10 in 10.0 mi WNW 18.4 mph 33.4 mph N/A   Clear
5:52 PM 30.9 °F 19.1 °F 19.9 °F 64% 30.14 in 10.0 mi WNW 18.4 mph 28.8 mph N/A   Clear
6:52 PM 28.9 °F 16.5 °F 19.9 °F 69% 30.17 in 10.0 mi West 18.4 mph 24.2 mph N/A   Clear
7:52 PM 28.0 °F 16.5 °F 19.0 °F 69% 30.19 in 10.0 mi WNW 15.0 mph - N/A   Clear
8:52 PM 28.0 °F 17.5 °F 19.0 °F 69% 30.21 in 10.0 mi WNW 12.7 mph - N/A   Clear
9:52 PM 27.0 °F 15.2 °F 19.0 °F 72% 30.23 in 10.0 mi West 15.0 mph - N/A   Clear
10:52 PM 27.0 °F 16.1 °F 17.1 °F 66% 30.25 in 10.0 mi WNW 12.7 mph - N/A   Clear
11:52 PM 27.0 °F 15.6 °F 16.0 °F 63% 30.26 in 10.0 mi WNW 13.8 mph 20.7 mph N/A   Clear